GW3986 Weather Reports


Display with metric or nautical units.
time (UTC)temp
F
wind
direction
speed
MPH
gust
MPH
rain 1hr
in
rain 24hr
in
rain mn
in
humidity
%
barometer
mb
20260906214503 83 185 4.0 17.0 0.00 0.00 0.00 35 1023.3
20260906213004 83 209 9.0 17.0 0.00 0.00 0.00 35 1023.5
20260906211502 83 160 7.0 20.0 0.00 0.00 0.00 35 1023.7
20260906210004 83 132 4.0 12.0 0.00 0.00 0.00 35 1023.7
20260906204507 84 184 7.0 17.0 0.00 0.00 0.00 33 1023.9
20260906203017 83 128 5.0 14.0 0.00 0.00 0.00 34 1024.0
20260906201511 83 147 5.0 9.0 0.00 0.00 0.00 35 1024.1
20260906200007 83 179 5.0 15.0 0.00 0.00 0.00 32 1024.3
20260906194508 83 130 6.0 14.0 0.00 0.00 0.00 33 1024.4
20260906193007 82 153 7.0 16.0 0.00 0.00 0.00 32 1024.7
20260906191505 83 92 2.0 17.0 0.00 0.00 0.00 33 1024.7
20260906190008 83 139 5.0 12.0 0.00 0.00 0.00 32 1025.0
20260906184509 82 203 4.0 16.0 0.00 0.00 0.00 32 1025.1
20260906183011 82 173 6.0 16.0 0.00 0.00 0.00 35 1025.4
20260906181528 81 170 4.0 13.0 0.00 0.00 0.00 36 1025.8
20260906180024 81 169 3.0 10.0 0.00 0.00 0.00 33 1026.0
20260906174513 81 153 4.0 10.0 0.00 0.00 0.00 36 1026.2
20260906173012 80 159 3.0 10.0 0.00 0.00 0.00 35 1026.3
20260906171514 80 201 5.0 7.0 0.00 0.00 0.00 34 1026.5
20260906170007 80 236 2.0 7.0 0.00 0.00 0.00 36 1026.6
20260906164516 79 126 2.0 10.0 0.00 0.00 0.00 34 1026.7
20260906163014 78 74 2.0 8.0 0.00 0.00 0.00 37 1026.7
20260906161534 77 306 1.0 6.0 0.00 0.00 0.00 39 1026.8
20260906160015 75 65 1.0 6.0 0.00 0.00 0.00 43 1026.8
20260906154514 75 107 2.0 8.0 0.00 0.00 0.00 40 1026.7
20260906153018 74 111 1.0 5.0 0.00 0.00 0.00 42 1026.6
20260906151521 73 360 1.0 4.0 0.00 0.00 0.00 43 1026.5
20260906150018 71 32 1.0 4.0 0.00 0.00 0.00 47 1026.4
20260906144522 69 348 1.0 3.0 0.00 0.00 0.00 49 1026.5
20260906143018 66 339 2.0 5.0 0.00 0.00 0.00 56 1026.3
20260906141503 62 69 2.0 4.0 0.00 0.00 0.00 62 1026.3
20260906140005 58 17 0.0 4.0 0.00 0.00 0.00 68 1026.3
20260906134510 56 38 0.0 3.0 0.00 0.00 0.00 71 1026.1
20260906133016 56 22 0.0 3.0 0.00 0.00 0.00 69 1025.9
20260906131523 57 30 0.0 2.0 0.00 0.00 0.00 66 1025.7
20260906130007 58 28 0.0 2.0 0.00 0.00 0.00 64 1025.8
20260906124505 58 360 1.0 4.0 0.00 0.00 0.00 61 1025.8
20260906123019 59 43 0.0 3.0 0.00 0.00 0.00 61 1025.6
20260906121532 59 318 1.0 4.0 0.00 0.00 0.00 60 1025.6
20260906120023 58 318 2.0 5.0 0.00 0.00 0.00 62 1025.6
20260906114507 58 304 1.0 5.0 0.00 0.00 0.00 63 1025.5
20260906113011 57 321 0.0 3.0 0.00 0.00 0.00 65 1025.5
20260906111518 57 352 1.0 3.0 0.00 0.00 0.00 65 1025.3
20260906110023 57 37 0.0 0.0 0.00 0.00 0.00 64 1025.2
20260906104533 58 37 0.0 2.0 0.00 0.00 0.00 63 1025.2
20260906103014 58 21 0.0 2.0 0.00 0.00 0.00 64 1025.4
20260906101514 58 21 0.0 2.0 0.00 0.00 0.00 64 1025.5
20260906100031 58 21 0.0 1.0 0.00 0.00 0.00 63 1025.6
20260906094527 58 21 0.0 1.0 0.00 0.00 0.00 64 1025.6
20260906093029 59 20 0.0 3.0 0.00 0.00 0.00 64 1025.6
20260906091512 59 325 0.0 0.0 0.00 0.00 0.00 65 1025.4
20260906090025 60 325 0.0 2.0 0.00 0.00 0.00 65 1025.3
20260906084528 60 325 0.0 0.0 0.00 0.00 0.00 68 1025.4
20260906083030 61 325 0.0 0.0 0.00 0.00 0.00 70 1025.7
20260906081518 61 325 0.0 0.0 0.00 0.00 0.00 70 1025.7
20260906080019 61 325 0.0 2.0 0.00 0.00 0.00 69 1025.6
20260906074504 60 325 0.0 2.0 0.00 0.00 0.00 69 1025.7
20260906073006 60 55 0.0 2.0 0.00 0.00 0.00 72 1025.9
20260906071517 61 55 0.0 0.0 0.00 0.00 0.00 72 1026.0
20260906070013 61 55 0.0 0.0 0.00 0.00 0.00 71 1025.8
20260906064505 62 55 0.0 2.0 0.00 0.00 0.00 71 1026.1
20260906063004 62 43 0.0 2.0 0.00 0.00 0.00 72 1026.0
20260906061508 62 332 0.0 2.0 0.00 0.00 0.00 72 1025.8
20260906060020 62 360 0.0 4.0 0.00 0.00 0.00 72 1025.7
20260906054516 62 292 2.0 4.0 0.00 0.00 0.00 73 1025.8
20260906053004 63 264 0.0 1.0 0.00 0.00 0.00 72 1025.6
20260906051511 63 257 0.0 2.0 0.00 0.00 0.00 70 1025.7
20260906050009 64 257 0.0 2.0 0.00 0.00 0.00 69 1025.7
20260906044518 65 198 0.0 3.0 0.00 0.00 0.00 68 1025.9
20260906043028 65 142 0.0 2.0 0.00 0.00 0.00 68 1026.0
20260906041503 65 163 1.0 4.0 0.00 0.00 0.00 1026.0
20260906040007 65 167 1.0 4.0 0.00 0.00 0.00 65 1026.1
20260906034517 66 140 1.0 6.0 0.00 0.00 0.00 1026.1
20260906033018 67 190 0.0 2.0 0.00 0.00 0.00 64 1026.0
20260906031532 68 182 1.0 6.0 0.00 0.00 0.00 62 1026.1
20260906030004 68 161 2.0 6.0 0.00 0.00 0.00 60 1025.8
20260906024510 67 102 1.0 6.0 0.00 0.00 0.00 54 1025.6
20260906023017 66 90 3.0 9.0 0.00 0.00 0.00 43 1025.4
20260906021531 67 352 0.0 0.0 0.00 0.00 0.00 43 1025.0
20260906020031 68 352 0.0 2.0 0.00 0.00 0.00 42 1024.7
20260906014508 70 352 0.0 0.0 0.00 0.00 0.00 39 1024.5
20260906013014 72 352 0.0 0.0 0.00 0.00 0.00 38 1024.4
20260906011524 74 352 0.0 0.0 0.00 0.00 0.00 37 1024.6
20260906010030 75 352 0.0 2.0 0.00 0.00 0.00 35 1024.6
20260906004533 76 319 1.0 3.0 0.00 0.00 0.00 33 1024.9
20260906003012 75 265 1.0 4.0 0.00 0.00 0.00 32 1025.1
20260906001535 75 238 2.0 5.0 0.00 0.00 0.00 32 1025.1
20260906000028 75 221 1.0 4.0 0.00 0.00 0.00 36 1024.9
20260905234529 75 228 0.0 2.0 0.00 0.00 0.00 36 1024.9
20260905233015 75 244 1.0 4.0 0.00 0.00 0.00 33 1024.8
20260905231522 77 223 3.0 6.0 0.00 0.00 0.00 31 1024.7
20260905230023 77 275 0.0 6.0 0.00 0.00 0.00 32 1024.5
20260905224527 77 175 3.0 6.0 0.00 0.00 0.00 34 1024.7
20260905223046 77 184 1.0 6.0 0.00 0.00 0.00 33 1024.9
20260905221521 78 199 2.0 8.0 0.00 0.00 0.00 32 1025.2
20260905220003 80 173 2.0 9.0 0.00 0.00 0.00 29 1025.1
20260905214509 78 132 2.0 16.0 0.00 0.00 0.00 29 1025.0